Dewpoint
69 68 68 69 71 72 69 68 69 69 68 67 65 65 62 59 58 62 69 71 73 72 72 72 72 72 72 71 71 71 70 70 70 70 69 70 71 72 73 72 71 72 72
71 68 70 69 69 72 72 69 69 68 68 66 66 64 62 58 60 61 62 66 71 70 69 69 70 71 70 68 68 69 69 69 69 69 70 71 71 71 72 73 73 72 72
73 73 70 69 70 72 74 71 70 70 68 67 67 64 64 62 59 59 58 59 62 67 67 66 68 68 68 67 66 67 67 69 70 71 71 72 72 72 71 72 73 73 73
74 74 71 69 71 72 75 71 71 70 75 68 65 64 64 62 59 57 56 57 57 58 65 66 66 65 66 65 66 65 64 68 70 71 71 71 72 72 71 71 72 73 73
71 72 71 70 72 70 70 77 76 75 75 69 66 64 64 63 60 54 56 57 59 58 59 65 66 66 65 65 64 64 66 68 70 71 71 71 72 72 73 72 73 72 73
72 72 70 73 71 70 70 76 75 74 75 74 65 64 64 63 61 58 53 53 57 58 58 61 60 62 65 64 64 64 64 67 70 70 70 70 71 71 72 73 73 73 73
72 74 70 72 71 71 73 73 74 75 75 74 67 65 64 64 62 60 57 53 54 56 57 58 58 59 62 63 63 65 63 65 67 69 70 70 70 71 72 73 73 73 73
72 73 75 71 73 75 74 74 73 73 76 76 73 67 64 63 64 61 59 56 53 53 55 57 57 61 60 60 62 65 64 63 64 66 68 69 69 70 71 72 73 73 74
71 74 73 74 75 73 72 72 74 73 68 74 71 72 64 64 62 62 61 58 54 52 53 56 57 61 60 60 62 63 64 66 65 64 64 67 68 69 70 71 73 73 73
72 73 74 75 75 72 72 75 72 72 72 70 70 74 69 68 62 60 62 60 55 51 52 50 51 54 56 59 64 65 65 66 65 66 64 64 66 67 69 71 72 72 73
73 73 73 75 73 70 73 73 75 76 75 68 65 72 68 67 69 65 60 59 57 53 53 50 50 51 55 54 59 63 64 64 64 64 65 65 65 66 68 70 71 71 72
70 73 73 74 74 72 73 74 75 74 72 72 68 67 68 72 73 64 61 59 56 57 52 51 50 52 54 54 59 62 62 61 61 62 63 63 64 64 65 67 69 70 70
68 70 74 75 76 77 73 74 75 75 75 71 74 67 65 75 75 70 63 60 57 57 55 52 52 53 52 53 55 57 60 60 59 60 60 61 62 62 63 64 65 67 68
69 72 73 74 75 76 74 73 72 71 74 75 72 72 67 74 77 68 64 61 58 57 58 55 53 52 54 53 55 56 56 59 59 59 60 60 59 60 61 62 62 63 63
70 74 74 74 75 75 75 75 71 71 73 76 75 73 70 67 73 68 66 64 62 57 57 58 53 54 54 54 55 52 53 58 58 58 59 60 59 59 59 61 61 61 61
75 74 75 75 75 75 75 76 74 74 74 77 72 74 72 70 70 74 67 65 63 63 58 59 57 55 55 53 55 53 53 57 57 57 57 58 57 57 58 59 60 60 60
75 76 76 75 75 75 75 75 76 75 74 74 73 73 71 73 68 77 68 66 64 64 60 59 59 58 59 57 55 56 54 51 53 58 57 57 57 57 57 57 58 60 61
75 76 77 76 76 75 75 75 74 73 73 73 73 73 71 69 72 74 70 69 66 66 62 64 62 58 60 59 59 59 54 50 50 58 60 59 58 58 57 56 58 59 60
77 75 76 76 76 77 76 76 75 74 73 72 72 72 71 71 71 72 72 68 67 65 65 62 61 60 59 58 60 59 58 55 53 59 61 60 59 58 57 56 55 56 57
77 76 70 67 66 71 75 75 75 75 73 72 73 74 74 72 74 73 74 71 69 66 67 63 61 60 59 61 59 55 55 56 55 52 55 55 57 58 58 56 55 54 55
72 68 67 66 66 68 68 73 73 74 75 72 73 74 74 73 71 71 70 72 72 68 64 63 62 60 59 58 59 56 54 53 58 54 53 53 53 53 53 57 53 53 54
72 69 67 65 65 64 67 68 70 73 73 73 75 74 73 72 71 70 70 70 70 70 71 64 63 63 66 62 60 58 57 54 52 56 57 54 54 55 54 53 55 56 55
73 70 68 65 65 67 65 66 69 71 72 70 72 75 73 72 71 72 70 68 68 67 68 71 70 67 68 67 67 65 65 61 57 55 60 55 56 55 57 54 58 57 57
71 71 70 70 69 68 65 64 68 71 71 71 72 74 74 73 74 71 72 70 70 69 69 66 68 68 68 70 70 67 68 66 63 57 63 54 56 56 58 58 59 57 57
71 70 70 69 70 70 66 64 67 71 71 72 72 74 74 74 70 67 74 72 71 70 66 65 66 66 65 64 66 64 62 61 60 58 60 57 56 57 59 59 60 58 56
73 70 71 72 70 68 67 64 66 71 70 69 76 73 68 72 65 65 74 73 70 69 67 68 67 65 65 65 64 67 63 61 60 56 59 57 57 58 57 59 59 59 58
Lifted_Index
-4 -3 -3 -4 -4 -4 -3 -2 -1 -1 -1 -0 0 1 2 3 3 2 1 0 -0 -0 -0 -0 -0 0 0 1 1 1 1 1 1 0 -0 -1 -2 -3 -3 -3 -2 -2 -2
-4 -4 -4 -4 -4 -4 -3 -2 -2 -1 -1 -0 0 1 2 3 4 3 2 1 1 1 1 1 1 1 2 2 2 2 2 2 1 1 -0 -1 -2 -2 -3 -3 -2 -2 -2
-5 -5 -4 -4 -4 -4 -4 -3 -2 -2 -1 -1 0 1 2 4 4 5 4 3 3 3 3 3 3 3 3 4 4 4 3 2 1 0 -0 -1 -2 -2 -2 -2 -2 -2 -2
-5 -5 -4 -4 -4 -5 -4 -4 -3 -3 -2 -1 0 1 2 3 5 6 6 5 5 4 4 4 4 4 5 5 5 5 4 3 1 0 -0 -1 -1 -2 -2 -2 -2 -2 -2
-5 -5 -5 -4 -4 -4 -5 -4 -4 -3 -3 -1 0 1 2 3 5 6 7 7 6 5 5 5 5 5 5 5 5 5 5 3 1 1 0 -0 -1 -1 -2 -2 -2 -3 -3
-5 -5 -5 -5 -5 -4 -5 -5 -4 -4 -3 -2 -1 1 2 2 4 5 7 7 7 6 6 6 5 5 5 6 6 5 5 3 2 1 1 0 -0 -1 -1 -2 -3 -3 -3
-5 -5 -5 -5 -5 -4 -5 -5 -5 -4 -4 -3 -1 -0 1 2 3 4 6 7 8 8 7 7 6 6 6 6 6 5 5 5 3 2 2 1 1 0 -1 -2 -2 -3 -3
-4 -5 -5 -5 -5 -5 -4 -4 -5 -4 -4 -3 -2 -1 0 1 2 4 5 7 8 9 8 8 8 7 6 6 6 5 5 5 5 4 3 2 2 1 0 -1 -2 -3 -3
-4 -5 -5 -5 -5 -5 -4 -4 -4 -4 -4 -4 -3 -2 -1 0 1 3 4 6 8 9 9 9 9 8 7 7 6 6 5 5 5 5 5 4 3 2 1 -0 -1 -2 -2
-5 -5 -5 -5 -5 -5 -5 -5 -5 -5 -4 -4 -3 -2 -1 -0 1 2 3 5 7 9 10 10 10 9 9 8 7 6 6 6 6 6 6 5 4 3 2 1 -0 -1 -1
-5 -5 -5 -5 -5 -4 -5 -5 -5 -5 -5 -4 -3 -3 -2 -1 -1 0 2 3 6 8 9 10 10 10 10 9 8 8 8 7 7 7 6 6 5 4 3 1 0 -0 -0
-5 -5 -5 -5 -5 -4 -5 -5 -5 -5 -5 -4 -3 -3 -3 -2 -2 -1 1 3 4 6 8 9 10 10 10 10 10 9 9 9 9 9 8 7 7 6 4 3 2 1 0
-5 -5 -5 -5 -5 -5 -5 -5 -5 -5 -5 -5 -4 -3 -3 -3 -3 -2 -0 2 3 5 6 8 9 9 10 10 11 11 11 11 11 11 10 9 9 8 6 5 4 3 2
-5 -5 -5 -5 -5 -5 -5 -5 -5 -5 -5 -5 -5 -4 -4 -4 -4 -3 -1 1 2 3 4 6 8 9 9 10 11 12 12 12 12 12 11 11 10 9 8 7 6 5 5
-5 -5 -5 -6 -6 -5 -5 -5 -5 -5 -5 -5 -5 -5 -4 -4 -4 -3 -2 -0 1 2 3 4 6 8 9 10 11 12 12 13 13 13 12 12 12 11 10 9 8 7 7
-6 -6 -6 -6 -6 -6 -6 -5 -5 -5 -5 -5 -5 -4 -4 -4 -4 -3 -3 -1 0 1 2 4 5 7 8 10 11 12 12 13 13 13 13 13 13 12 11 10 9 9 9
-6 -6 -6 -6 -6 -6 -6 -6 -6 -5 -5 -5 -5 -4 -4 -4 -4 -4 -3 -2 -0 1 2 3 4 6 7 9 10 11 12 12 13 13 13 13 13 13 12 12 11 10 9
-7 -7 -7 -7 -7 -6 -6 -6 -6 -5 -5 -5 -5 -4 -4 -4 -4 -4 -3 -2 -1 0 1 3 4 5 6 8 9 10 10 11 12 13 13 13 14 14 14 13 12 11 11
-8 -8 -7 -6 -5 -5 -6 -6 -5 -5 -5 -5 -5 -4 -4 -4 -4 -4 -3 -2 -1 -0 1 2 3 4 5 7 8 8 9 10 11 12 13 13 14 14 14 14 14 14 13
-8 -7 -5 -3 -1 -2 -4 -5 -5 -5 -5 -5 -5 -5 -4 -4 -4 -4 -4 -3 -2 -1 0 1 2 3 5 5 6 6 7 9 10 11 12 13 13 14 14 14 14 15 14
-7 -6 -4 -1 1 1 -2 -3 -4 -4 -4 -4 -4 -5 -5 -4 -4 -4 -3 -3 -2 -1 -1 0 2 3 4 4 4 5 6 7 8 9 10 11 11 12 12 13 13 14 14
-6 -5 -4 -2 0 1 -0 -1 -2 -3 -3 -3 -4 -4 -4 -4 -3 -3 -3 -2 -2 -2 -2 -1 1 2 3 3 4 4 5 6 7 8 9 9 9 9 10 11 11 12 13
-6 -5 -4 -3 -2 -0 0 -0 -2 -2 -2 -2 -3 -4 -4 -4 -3 -3 -2 -2 -2 -2 -2 -1 -0 1 2 2 3 3 4 4 6 7 7 8 8 8 8 8 9 10 11
-6 -6 -5 -4 -3 -1 -1 -1 -2 -3 -2 -2 -3 -4 -4 -4 -3 -3 -3 -3 -2 -2 -1 -1 -1 0 1 1 2 3 4 4 5 6 6 7 7 7 6 6 7 8 9
-7 -6 -5 -4 -3 -2 -2 -3 -3 -3 -3 -3 -4 -4 -4 -4 -4 -4 -4 -4 -3 -2 -2 -1 -0 -0 0 1 2 3 3 4 4 5 6 6 6 6 5 5 6 6 7
-7 -6 -5 -5 -4 -3 -3 -4 -4 -4 -4 -4 -4 -4 -4 -4 -4 -4 -4 -4 -4 -3 -2 -1 -0 0 1 1 2 3 3 3 4 5 6 6 6 5 5 5 5 5 6